Location: Abundant Grace Fellowship
(35.0349°N, 90.0924°W)
Time: 21:56:41
(UTC+00:00)

Spot 4 Rocket - Pass Details

Date: 18 January 2026
Orbit: 768 x 774 km, 98.8° (Epoch: 10 February)

Event Time Altitude Azimuth Distance (km) Brightness Sun altitude
Rises 00:45:25 0° 168° (SSE) 3,234 7.3 -18.5°
Reaches altitude 10° 00:47:43 10° 170° (S) 2,311 6.5 -19.0°
Maximum altitude 00:52:49 80° 256° (WSW) 790 4.1 -20.0°
Drops below altitude 10° 00:57:57 10° 344° (NNW) 2,325 6.5 -21.0°
Sets 01:00:16 0° 346° (NNW) 3,255 7.3 -21.5°
